Tracking 19242 objects as of 16-Aug-2018
HD Live streaming from Space Station
objects crossing your sky now

FENGYUN 1C DEB

Track FENGYUN 1C DEB now!
10-day predictions


NORAD ID: 30112
Int'l Code: 1999-025RR
Perigee: 690.9 km
Apogee: 1,011.0 km
Inclination: 99.3 °
Period: 101.8 minutes
Semi major axis: 7221 km
RCS: 0.038 m2 (small)
Launch date: May 10, 1999
Source: People's Republic of China (PRC)
Launch site: Taiyaun Space Center, China (TSC)

Note: This is SATELLITE DEBRIS
aabbcc
Your satellite tracking list
Your tracking list is empty




NASA's NSSDC Master Catalog

Two Line Element Set (TLE):
1 30112U 99025RR  18227.50905390  .00000105  00000-0  63124-4 0  9999
2 30112  99.3343  59.2235 0221658  96.6844 265.9606 14.14557877597056
Source of the keplerian elements: AFSPC